AB8YS Weather Reports


Display with metric or nautical units.
time (UTC)temp
F
wind
direction
speed
MPH
gust
MPH
rain 1hr
in
rain 24hr
in
rain mn
in
humidity
%
barometer
mb
20260502163023 51 287 0.0 4.0 0.00 0.00 0.00 46 1018.6
20260502161514 51 74 0.0 5.0 0.00 0.00 0.00 47 1018.7
20260502151524 50 289 0.0 6.0 0.00 0.00 0.00 53 1018.9
20260502123050 45 279 0.0 1.0 0.00 0.00 0.00 68 1018.4
20260502121545 44 19 0.0 1.0 0.00 0.00 0.00 70 1018.4
20260502114534 41 65 0.0 1.0 0.00 0.00 0.00 78 1018.1
20260502113029 38 297 0.0 0.0 0.00 0.00 0.00 87 1018.1
20260502111528 35 297 0.0 0.0 0.00 0.00 0.00 88 1017.9
20260502110028 35 297 0.0 0.0 0.00 0.00 0.00 88 1017.8
20260502104531 35 297 0.0 0.0 0.00 0.00 0.00 89 1017.7
20260502103027 35 297 0.0 0.0 0.00 0.00 0.00 89 1017.7
20260502101526 36 297 0.0 0.0 0.00 0.00 0.00 89 1017.7
20260502091524 36 297 0.0 0.0 0.00 0.00 0.00 93 1017.6
20260502071520 35 297 0.0 0.0 0.00 0.00 0.00 92 1017.4
20260502070017 35 297 0.0 0.0 0.00 0.00 0.00 92 1017.3
20260502064514 36 297 0.0 0.0 0.00 0.00 0.00 92 1017.6
20260502063012 36 297 0.0 0.0 0.00 0.00 0.00 92 1017.8
20260502061516 36 297 0.0 0.0 0.00 0.00 0.00 92 1018.0
20260502060008 36 297 0.0 0.0 0.00 0.00 0.00 92 1018.1
20260502054507 37 297 0.0 0.0 0.00 0.00 0.00 92 1018.1
20260502053007 37 297 0.0 0.0 0.00 0.00 0.00 92 1017.9
20260502051510 37 297 0.0 0.0 0.00 0.00 0.00 91 1017.9
20260502050004 38 297 0.0 0.0 0.00 0.00 0.00 91 1018.1
20260502044500 38 297 0.0 0.0 0.00 0.00 0.00 91 1017.9
20260502043103 38 297 0.0 0.0 0.00 0.00 0.00 90 1017.9
20260502041604 39 297 0.0 0.0 0.00 0.00 0.00 90 1018.0
20260502040157 39 297 0.0 0.0 0.00 0.00 0.00 88 1017.9
20260502034553 40 297 0.0 0.0 0.00 0.00 0.00 88 1017.9
20260502033051 40 297 0.0 0.0 0.00 0.00 0.00 86 1018.0
20260502031550 41 297 0.0 0.0 0.00 0.00 0.00 84 1017.8
20260502030045 41 297 0.0 0.0 0.00 0.00 0.00 82 1017.7
20260502024556 42 297 0.0 0.0 0.00 0.00 0.00 79 1017.7
20260502023045 43 297 0.0 0.0 0.00 0.00 0.00 76 1017.8
20260502021546 44 297 0.0 0.0 0.00 0.00 0.00 75 1017.6
20260502020041 45 297 0.0 0.0 0.00 0.00 0.00 77 1017.4
20260502014539 45 297 0.0 0.0 0.00 0.00 0.00 77 1017.1
20260502013037 45 297 0.0 0.0 0.00 0.00 0.00 75 1016.9
20260502011535 46 297 0.0 0.0 0.00 0.00 0.00 75 1016.5
20260502010032 46 297 0.0 0.0 0.00 0.00 0.00 74 1016.3
20260502004529 47 297 0.0 0.0 0.00 0.00 0.00 72 1015.8
20260502003029 47 297 0.0 0.0 0.00 0.00 0.00 71 1015.5
20260502001529 47 297 0.0 0.0 0.00 0.00 0.00 69 1015.6
20260502000027 48 297 0.0 1.0 0.00 0.00 0.00 67 1015.8
20260501234527 49 349 0.0 1.0 0.00 0.00 0.00 64 1015.6
20260501233025 49 360 0.0 1.0 0.00 0.00 0.00 62 1015.5
20260501231524 49 272 0.0 1.0 0.00 0.00 0.00 64 1015.4
20260501230023 50 272 0.0 0.0 0.00 0.00 0.00 64 1015.3
20260501224523 50 272 0.0 1.0 0.00 0.00 0.00 62 1015.4
20260501223023 50 267 0.0 2.0 0.00 0.00 0.00 66 1015.5
20260501221522 51 309 0.0 1.0 0.00 0.00 0.00 60 1015.3
20260501220021 50 307 0.0 2.0 0.00 0.00 0.00 60 1015.3
20260501214520 51 356 0.0 2.0 0.00 0.00 0.00 66 1015.3
20260501213019 50 285 0.0 2.0 0.00 0.00 0.00 65 1015.5
20260501211518 50 252 0.0 1.0 0.00 0.00 0.00 67 1015.4
20260501210017 50 281 0.0 1.0 0.00 0.00 0.00 68 1015.2
20260501204516 49 282 0.0 1.0 0.00 0.00 0.00 70 1015.3
20260501203019 50 278 0.0 1.0 0.00 0.00 0.00 69 1015.2
20260501201516 51 271 0.0 3.0 0.00 0.00 0.00 68 1015.2
20260501200020 49 289 0.0 1.0 0.00 0.00 0.00 72 1015.3
20260501194515 49 306 0.0 2.0 0.00 0.00 0.00 73 1015.3
20260501193020 48 290 0.0 1.0 0.00 0.00 0.00 75 1015.2
20260501191514 49 278 0.0 2.0 0.00 0.00 0.00 72 1015.3
20260501190012 50 306 0.0 2.0 0.00 0.00 0.00 73 1015.1
20260501184519 50 300 0.0 3.0 0.00 0.00 0.00 72 1014.8
20260501183014 50 308 0.0 3.0 0.00 0.00 0.00 75 1014.6
20260501181509 51 286 0.0 2.0 0.00 0.00 0.00 72 1014.4
20260501180014 51 281 0.0 3.0 0.00 0.00 0.00 70 1014.1
20260501174524 52 297 0.0 4.0 0.00 0.00 0.00 72 1013.7
20260501173008 52 307 0.0 3.0 0.00 0.00 0.00 72 1013.7
20260501171504 52 324 1.0 3.0 0.00 0.00 0.00 72 1013.5